When you browse on this site, cookies collect data to enhance your experience and personalize the content and advertising you see.
Visit our Privacy Policy to learn more. By continuing to use the site, you agree to this use of cookies and data.
  • In Hungary
  • List of Countries
  • For 7 days
  • Water Temperature
  • Weather Map
  • News
  • Weather Widgets
  • user-avatar
    Login

    Hourly Weather Allahabad

    Today, 11 December, Wednesday

    Time Temperature Precipitation Wind Pressure Humidity
    00:00 +16°C° 0 mm 0 mps 752 mmHg 55%
    01:00 +16°C° 0 mm 0 mps 752 mmHg 56%
    02:00 +16°C° 0 mm 0 mps 752 mmHg 58%
    03:00 +15°C° 0 mm 0 mps 752 mmHg 59%
    04:00 +15°C° 0 mm 0 mps 752 mmHg 60%
    05:00 +14°C° 0 mm 0 mps 752 mmHg 66%
    06:00 +16°C° 0 mm 0 mps 753 mmHg 63%
    07:00 +17°C° 0 mm 0 mps 753 mmHg 59%
    08:00 +18°C° 0 mm 0 mps 754 mmHg 56%
    09:00 +20°C° 0 mm 0 mps 753 mmHg 50%
    10:00 +21°C° 0 mm 0 mps 753 mmHg 44%
    11:00 +23°C° 0 mm 0 mps 753 mmHg 38%
    12:00 +23°C° 0 mm 0 mps 752 mmHg 35%
    13:00 +24°C° 0 mm 0 mps 751 mmHg 32%
    14:00 +24°C° 0 mm 0 mps 750 mmHg 29%
    15:00 +23°C° 0 mm 0 mps 750 mmHg 31%
    16:00 +24°C° 0 mm 1 mps 750 mmHg 33%
    17:00 +23°C° 0 mm 1 mps 750 mmHg 35%
    18:00 +22°C° 0 mm 1 mps 751 mmHg 36%
    19:00 +21°C° 0 mm 1 mps 751 mmHg 37%
    20:00 +21°C° 0 mm 1 mps 752 mmHg 38%
    21:00 +20°C° 0 mm 1 mps 752 mmHg 39%
    22:00 +20°C° 0 mm 1 mps 751 mmHg 40%
    23:00 +19°C° 0 mm 1 mps 751 mmHg 41%

    Tomorrow, 12 December, Thursday

    Time Temperature Precipitation Wind Pressure Humidity
    00:00 +19°C° 0 mm 1 mps 751 mmHg 42%
    01:00 +17°C° 0 mm 2 mps 751 mmHg 43%
    02:00 +17°C° 0 mm 2 mps 751 mmHg 44%
    03:00 +17°C° 0 mm 2 mps 751 mmHg 45%
    04:00 +17°C° 0 mm 2 mps 751 mmHg 47%
    05:00 +16°C° 0 mm 2 mps 751 mmHg 48%
    06:00 +17°C° 0 mm 2 mps 752 mmHg 47%
    07:00 +18°C° 0 mm 2 mps 752 mmHg 46%
    08:00 +19°C° 0 mm 2 mps 753 mmHg 45%
    09:00 +21°C° 0 mm 2 mps 753 mmHg 42%
    10:00 +24°C° 0 mm 3 mps 752 mmHg 39%
    11:00 +26°C° 0 mm 3 mps 752 mmHg 35%
    12:00 +26°C° 0 mm 3 mps 751 mmHg 35%
    13:00 +27°C° 0 mm 3 mps 751 mmHg 35%
    14:00 +27°C° 0 mm 3 mps 750 mmHg 34%
    15:00 +26°C° 0 mm 3 mps 750 mmHg 37%
    16:00 +25°C° 0 mm 3 mps 750 mmHg 40%
    17:00 +24°C° 0 mm 3 mps 750 mmHg 42%
    18:00 +24°C° 0 mm 3 mps 751 mmHg 43%
    19:00 +22°C° 0 mm 4 mps 751 mmHg 43%
    20:00 +22°C° 0 mm 4 mps 752 mmHg 43%
    21:00 +22°C° 0.2 mm 4 mps 752 mmHg 46%
    22:00 +22°C° 0.2 mm 4 mps 752 mmHg 48%
    23:00 +21°C° 0.2 mm 4 mps 752 mmHg 50%

    Day after tomorrow, 13 December, Friday

    Time Temperature Precipitation Wind Pressure Humidity
    00:00 +20°C° 0.6 mm 5 mps 752 mmHg 58%
    01:00 +19°C° 0.6 mm 5 mps 752 mmHg 65%
    02:00 +17°C° 0.6 mm 6 mps 752 mmHg 73%
    03:00 +17°C° 0.8 mm 6 mps 752 mmHg 76%
    04:00 +16°C° 0.8 mm 7 mps 752 mmHg 79%
    05:00 +16°C° 0.8 mm 7 mps 752 mmHg 82%
    06:00 +16°C° 0.8 mm 7 mps 752 mmHg 83%
    07:00 +16°C° 0.8 mm 6 mps 753 mmHg 84%
    08:00 +16°C° 0.8 mm 6 mps 754 mmHg 84%
    09:00 +16°C° 1.4 mm 6 mps 754 mmHg 85%
    10:00 +17°C° 1.4 mm 6 mps 754 mmHg 86%
    11:00 +17°C° 1.4 mm 6 mps 753 mmHg 87%
    12:00 +17°C° 0.5 mm 6 mps 753 mmHg 85%
    13:00 +17°C° 0.5 mm 6 mps 752 mmHg 83%
    14:00 +19°C° 0.5 mm 6 mps 752 mmHg 81%
    15:00 +19°C° 0.2 mm 6 mps 752 mmHg 83%
    16:00 +17°C° 0.2 mm 5 mps 752 mmHg 84%
    17:00 +18°C° 0.2 mm 4 mps 751 mmHg 86%
    18:00 +17°C° 0.2 mm 5 mps 752 mmHg 87%
    19:00 +17°C° 0.2 mm 5 mps 753 mmHg 88%
    20:00 +16°C° 0.2 mm 5 mps 754 mmHg 88%
    21:00 +16°C° 0.1 mm 5 mps 754 mmHg 88%
    22:00 +16°C° 0.1 mm 6 mps 754 mmHg 87%
    23:00 +16°C° 0.1 mm 6 mps 754 mmHg 87%

    14 December, Saturday

    Time Temperature Precipitation Wind Pressure Humidity
    00:00 +16°C° 0 mm 5 mps 754 mmHg 87%
    01:00 +16°C° 0 mm 5 mps 754 mmHg 87%
    02:00 +15°C° 0 mm 5 mps 754 mmHg 87%
    03:00 +15°C° 0 mm 4 mps 754 mmHg 87%
    04:00 +17°C° 0 mm 4 mps 754 mmHg 88%
    05:00 +17°C° 0 mm 4 mps 754 mmHg 88%
    06:00 +17°C° 0 mm 3 mps 755 mmHg 87%
    07:00 +17°C° 0 mm 3 mps 755 mmHg 87%
    08:00 +18°C° 0 mm 3 mps 756 mmHg 86%
    09:00 +19°C° 0 mm 3 mps 756 mmHg 82%
    10:00 +20°C° 0 mm 3 mps 756 mmHg 77%
    11:00 +21°C° 0 mm 2 mps 755 mmHg 73%
    12:00 +21°C° 0 mm 2 mps 755 mmHg 70%
    13:00 +23°C° 0 mm 2 mps 754 mmHg 66%
    14:00 +24°C° 0 mm 2 mps 753 mmHg 63%
    15:00 +23°C° 0 mm 2 mps 753 mmHg 66%
    16:00 +23°C° 0 mm 2 mps 753 mmHg 69%
    17:00 +21°C° 0 mm 2 mps 752 mmHg 72%
    18:00 +20°C° 0 mm 2 mps 753 mmHg 73%
    19:00 +20°C° 0 mm 2 mps 754 mmHg 75%
    20:00 +19°C° 0 mm 2 mps 754 mmHg 76%
    21:00 +19°C° 0 mm 2 mps 754 mmHg 77%
    22:00 +20°C° 0 mm 1 mps 754 mmHg 78%
    23:00 +19°C° 0 mm 1 mps 754 mmHg 79%

    15 December, Sunday

    Time Temperature Precipitation Wind Pressure Humidity
    00:00 +19°C° 0 mm 1 mps 754 mmHg 79%
    01:00 +19°C° 0 mm 1 mps 753 mmHg 80%
    02:00 +18°C° 0 mm 2 mps 753 mmHg 81%
    03:00 +18°C° 0 mm 2 mps 753 mmHg 81%
    04:00 +18°C° 0 mm 2 mps 753 mmHg 82%
    05:00 +17°C° 0 mm 2 mps 753 mmHg 82%
    06:00 +18°C° 0.1 mm 2 mps 754 mmHg 79%
    07:00 +19°C° 0.1 mm 2 mps 754 mmHg 76%
    08:00 +19°C° 0.1 mm 2 mps 755 mmHg 73%
    09:00 +21°C° 0 mm 2 mps 754 mmHg 69%
    10:00 +23°C° 0 mm 2 mps 754 mmHg 64%
    11:00 +25°C° 0 mm 2 mps 754 mmHg 59%
    12:00 +25°C° 0 mm 2 mps 753 mmHg 57%
    13:00 +26°C° 0 mm 2 mps 752 mmHg 55%
    14:00 +26°C° 0 mm 2 mps 751 mmHg 53%
    15:00 +25°C° 0.1 mm 2 mps 751 mmHg 57%
    16:00 +24°C° 0.1 mm 2 mps 751 mmHg 61%
    17:00 +24°C° 0.1 mm 2 mps 752 mmHg 64%
    18:00 +23°C° 0.3 mm 2 mps 752 mmHg 68%
    19:00 +21°C° 0.3 mm 2 mps 753 mmHg 71%
    20:00 +20°C° 0.3 mm 2 mps 753 mmHg 74%
    21:00 +20°C° 0.1 mm 2 mps 753 mmHg 76%
    22:00 +19°C° 0.1 mm 2 mps 753 mmHg 77%
    23:00 +19°C° 0.1 mm 2 mps 753 mmHg 79%

    16 December, Monday

    Time Temperature Precipitation Wind Pressure Humidity
    00:00 +19°C° 0.1 mm 2 mps 753 mmHg 79%
    01:00 +18°C° 0.1 mm 2 mps 753 mmHg 79%
    02:00 +19°C° 0.1 mm 1 mps 753 mmHg 80%
    03:00 +19°C° 0 mm 1 mps 753 mmHg 80%
    04:00 +19°C° 0 mm 1 mps 753 mmHg 80%
    05:00 +19°C° 0 mm 1 mps 752 mmHg 80%
    06:00 +19°C° 0 mm 1 mps 753 mmHg 76%
    07:00 +20°C° 0 mm 1 mps 753 mmHg 72%
    08:00 +20°C° 0 mm 2 mps 754 mmHg 68%
    09:00 +21°C° 0 mm 2 mps 754 mmHg 64%
    10:00 +24°C° 0 mm 2 mps 753 mmHg 60%
    11:00 +25°C° 0 mm 2 mps 753 mmHg 55%
    12:00 +26°C° 0 mm 2 mps 753 mmHg 53%
    13:00 +26°C° 0 mm 2 mps 752 mmHg 51%
    14:00 +27°C° 0 mm 2 mps 751 mmHg 48%
    15:00 +26°C° 0 mm 2 mps 751 mmHg 51%
    16:00 +25°C° 0 mm 2 mps 752 mmHg 54%
    17:00 +24°C° 0 mm 2 mps 752 mmHg 57%
    18:00 +23°C° 0 mm 2 mps 752 mmHg 57%
    19:00 +21°C° 0 mm 2 mps 752 mmHg 57%
    20:00 +21°C° 0 mm 2 mps 753 mmHg 57%
    21:00 +21°C° 0 mm 2 mps 753 mmHg 56%
    22:00 +21°C° 0 mm 2 mps 753 mmHg 55%
    23:00 +22°C° 0 mm 1 mps 753 mmHg 54%
    Show more